Overview Statistics Trail Chart Weather Telemetry Raw packets
 

This is the latest recevied weather packets stored in our database for station/object KN1OBI-13. If no packets are shown the sender has not sent any weather packets the latest 10 day(s).

<< 2 3 4 5 6 7 8 >>
Time Temp. Humidity Pressure Rain* Wind** Luminosity Snow
1788566193 21.67° C 71% 989.6 hPa 0 mm - - -
1788565593 21.67° C 71% 989.2 hPa 0 mm - - -
1788564993 22.22° C 71% 989.6 hPa 0 mm - - -
1788564393 22.22° C 69% 989.4 hPa 0 mm - - -
1788563793 22.22° C 68% 989.4 hPa 0 mm - - -
1788563193 22.78° C 67% 988.9 hPa 0 mm - - -
1788562592 22.78° C 67% 989.1 hPa 0 mm - - -
1788561993 23.33° C 65% 989.1 hPa 0 mm - - -
1788561393 23.89° C 67% 989 hPa 0 mm - - -
1788560792 23.89° C 63% 988.7 hPa 0 mm - - -
1788560193 24.44° C 62% 988.9 hPa 0 mm - - -
1788559593 24.44° C 62% 989.1 hPa 0 mm - - -
1788558993 24.44° C 64% 988.6 hPa 0 mm - - -
1788558393 23.89° C 64% 988.8 hPa 0 mm - - -
1788557793 24.44° C 63% 988.9 hPa 0 mm - - -
1788557193 24.44° C 63% 989.1 hPa 0 mm - - -
1788556626 25° C 63% 989.1 hPa 0 mm - - -
1788555993 25.56° C 60% 988.8 hPa 0 mm - - -
1788555392 26.67° C 58% 988.9 hPa 0 mm - - -
1788554792 27.22° C 58% 988.7 hPa 0 mm - - -
1788554192 26.67° C 57% 988.8 hPa 0 mm - - -
1788553592 26.67° C 58% 988.9 hPa 0 mm - - -
1788552992 27.22° C 57% 989.1 hPa 0 mm - - -
1788552392 27.78° C 57% 988.9 hPa 0 mm - - -
1788551793 27.22° C 61% 989 hPa 0 mm - - -

* Rain latest hour (hover to see other rain measurements)
** Current wind speed in m/s (hover to see current wind gust speed)